User: anonymous   Login
Location: Sunrise Point
(46.9200°N, 121.5900°W)
Time: 21:10:20
(UTC-08:00)
Language:

Cosmos 2058 - Orbit

View from above orbital plane
View from above orbital plane
View from above satellite
View from above satellite

Ground track
Ground track

The orbit data is extracted from the following two-line orbital elements,

1 20465U 90010A   18022.50838195  .00000317  00000-0  24737-4 0  9997
2 20465  82.4879  36.9663 0013913 276.7586  83.2053 14.97661270518163
Epoch (UTC): 22 January 2018 12:12:04
Eccentricity: 0.0013913
inclination: 82.4879°
perigee height: 564 km
apogee height: 584 km
right ascension of ascending node: 36.9663°
argument of perigee: 276.7586°
revolutions per day: 14.97661270
mean anomaly at epoch: 83.2053°
orbit number at epoch: 51816

The dashed part of the orbit path shows where the satellite is in the earth's shadow,  

DLR